Find Starlink 36664

NORAD ID: 68965 Int'l Des: 2026-099 Owner: SPXS Country: US Constellation: starlink operational
LEOCIRCULAR

当前视图

正在加载3D地球...

About Starlink 36664

Starlink 36664 (NORAD 68965) is a starlink constellation satellite (v2 mini) launched May 1, 2026 by SPXS of US. It operates in LEO, CIRCULAR orbit with a mass of 575.00 kg.

关于 Starlink 36664

正在加载描述...

即将过境

Passes for default location (London). Set your location on the main map for personalized predictions.

高度历史

Loading altitude history...

两行轨道根数

1 68965U 26099Q 26170.93161310 .00031171 00000-0 92949-3 0 9999
2 68965 53.1598 148.4591 0001418 86.5345 273.5820 15.34412538 7699
Epoch: Jun 19, 2026 • Age: 12 hours

当前状态

高度 467.2 km
速度 7.63 km/s
星下点 -15.96°S, 82.71°W
发射日期 May 1, 2026
运行时间 0.1 years
类型 internet

技术详情

分类 Payload
质量 575.00 kg
干质量 530.00 kg
总质量 575.00 kg
长度 0.30 m
直径 4.10 m
跨度 29.00 m
形状 Box + pan
制造商 SPXS
平台类型 Starlink V2MO
阶段状态 In Orbit
所有者/国家 SPXS/US

Most Searched